Location: Izdebno
(52.6670°N, 16.2170°E)
Time: 11:25:25
(UTC+02:00)

Vanguard 2 - Pass Details

Date: 07 February 2023
Orbit: 553 x 2927 km, 32.9° (Epoch: 26 March)

Event Time Altitude Azimuth Distance (km) Brightness Sun altitude
Rises 00:52:05 0° 261° (W) 6,050 - -51.8°
Reaches altitude 10° 00:56:27 10° 252° (WSW) 5,303 - -51.6°
Maximum altitude 01:09:38 31° 199° (SSW) 4,225 - -50.9°
Drops below altitude 10° 01:23:34 10° 146° (SSE) 5,579 - -50.0°
Exits shadow 01:26:57 - 140° (SE) 6,148 12.0 -49.7°
Sets 01:28:21 0° 137° (SE) 6,396 12.1 -49.6°
